• In Russia
  • List of Countries
  • For 7 days
  • Water Temperature
  • Satellite Maps
  • Weather Map
  • Weather Widgets
  • user-avatar
    Login

    Hourly Weather Tibissa

    Today, 21 May, Tuesday

    Time Temperature Precipitation Wind Pressure Humidity
    00:00 +16°C° 0 mm 1 mps 685 mmHg 51%
    01:00 +15°C° 0 mm 1 mps 685 mmHg 54%
    02:00 +15°C° 0 mm 1 mps 685 mmHg 56%
    03:00 +15°C° 0 mm 1 mps 684 mmHg 58%
    04:00 +14°C° 0 mm 1 mps 684 mmHg 60%
    05:00 +15°C° 0 mm 1 mps 684 mmHg 58%
    06:00 +15°C° 0 mm 1 mps 684 mmHg 57%
    07:00 +15°C° 0 mm 1 mps 684 mmHg 55%
    08:00 +18°C° 0 mm 1 mps 685 mmHg 49%
    09:00 +19°C° 0 mm 2 mps 685 mmHg 43%
    10:00 +20°C° 0 mm 2 mps 686 mmHg 36%
    11:00 +21°C° 0 mm 2 mps 686 mmHg 34%
    12:00 +23°C° 0 mm 2 mps 686 mmHg 31%
    13:00 +24°C° 0 mm 3 mps 686 mmHg 29%
    14:00 +24°C° 0 mm 3 mps 686 mmHg 30%
    15:00 +22°C° 0 mm 3 mps 686 mmHg 32%
    16:00 +22°C° 0 mm 3 mps 685 mmHg 33%
    17:00 +21°C° 0 mm 3 mps 685 mmHg 35%
    18:00 +21°C° 0 mm 3 mps 686 mmHg 38%
    19:00 +21°C° 0 mm 2 mps 686 mmHg 40%
    20:00 +20°C° 0 mm 2 mps 686 mmHg 44%
    21:00 +19°C° 0 mm 2 mps 686 mmHg 49%
    22:00 +18°C° 0 mm 2 mps 686 mmHg 53%
    23:00 +18°C° 0 mm 2 mps 686 mmHg 54%

    Tomorrow, 22 May, Wednesday

    Time Temperature Precipitation Wind Pressure Humidity
    00:00 +18°C° 0 mm 1 mps 686 mmHg 55%
    01:00 +18°C° 0 mm 1 mps 686 mmHg 56%
    02:00 +18°C° 0 mm 1 mps 686 mmHg 56%
    03:00 +18°C° 0 mm 1 mps 685 mmHg 57%
    04:00 +16°C° 0 mm 1 mps 685 mmHg 57%
    05:00 +16°C° 0 mm 1 mps 685 mmHg 56%
    06:00 +18°C° 0 mm 1 mps 685 mmHg 55%
    07:00 +18°C° 0 mm 1 mps 686 mmHg 55%
    08:00 +17°C° 0 mm 2 mps 686 mmHg 51%
    09:00 +18°C° 0 mm 2 mps 686 mmHg 48%
    10:00 +19°C° 0 mm 2 mps 687 mmHg 44%
    11:00 +20°C° 0.2 mm 2 mps 686 mmHg 43%
    12:00 +20°C° 0.2 mm 2 mps 686 mmHg 42%
    13:00 +22°C° 0.2 mm 1 mps 686 mmHg 41%
    14:00 +22°C° 0.7 mm 1 mps 686 mmHg 43%
    15:00 +21°C° 0.7 mm 1 mps 686 mmHg 45%
    16:00 +21°C° 0.7 mm 1 mps 685 mmHg 47%
    17:00 +20°C° 0.7 mm 2 mps 686 mmHg 49%
    18:00 +20°C° 0.7 mm 2 mps 686 mmHg 51%
    19:00 +19°C° 0.7 mm 2 mps 686 mmHg 53%
    20:00 +19°C° 0.4 mm 2 mps 686 mmHg 58%
    21:00 +18°C° 0.4 mm 2 mps 687 mmHg 62%
    22:00 +17°C° 0.4 mm 2 mps 687 mmHg 67%
    23:00 +16°C° 0 mm 2 mps 687 mmHg 71%

    Day after tomorrow, 23 May, Thursday

    Time Temperature Precipitation Wind Pressure Humidity
    00:00 +16°C° 0 mm 1 mps 687 mmHg 74%
    01:00 +15°C° 0 mm 1 mps 687 mmHg 78%
    02:00 +15°C° 0 mm 1 mps 686 mmHg 81%
    03:00 +14°C° 0 mm 1 mps 686 mmHg 84%
    04:00 +13°C° 0 mm 0 mps 686 mmHg 86%
    05:00 +14°C° 0 mm 1 mps 686 mmHg 84%
    06:00 +15°C° 0 mm 1 mps 686 mmHg 81%
    07:00 +15°C° 0 mm 1 mps 687 mmHg 78%
    08:00 +16°C° 0 mm 2 mps 687 mmHg 69%
    09:00 +18°C° 0 mm 2 mps 687 mmHg 59%
    10:00 +19°C° 0 mm 3 mps 688 mmHg 50%
    11:00 +20°C° 0 mm 3 mps 688 mmHg 43%
    12:00 +21°C° 0 mm 4 mps 688 mmHg 37%
    13:00 +23°C° 0 mm 4 mps 688 mmHg 30%
    14:00 +23°C° 0 mm 4 mps 688 mmHg 29%
    15:00 +25°C° 0 mm 4 mps 688 mmHg 27%
    16:00 +25°C° 0 mm 4 mps 687 mmHg 25%
    17:00 +25°C° 0 mm 4 mps 687 mmHg 26%
    18:00 +23°C° 0 mm 4 mps 687 mmHg 28%
    19:00 +22°C° 0 mm 4 mps 687 mmHg 29%
    20:00 +21°C° 0 mm 4 mps 687 mmHg 33%
    21:00 +20°C° 0 mm 3 mps 687 mmHg 38%
    22:00 +19°C° 0 mm 2 mps 687 mmHg 42%
    23:00 +18°C° 0 mm 2 mps 687 mmHg 46%

    24 May, Friday

    Time Temperature Precipitation Wind Pressure Humidity
    00:00 +18°C° 0 mm 2 mps 687 mmHg 50%
    01:00 +19°C° 0 mm 1 mps 686 mmHg 53%
    02:00 +17°C° 0 mm 2 mps 686 mmHg 58%
    03:00 +17°C° 0 mm 2 mps 686 mmHg 63%
    04:00 +16°C° 0 mm 2 mps 685 mmHg 69%
    05:00 +17°C° 0 mm 2 mps 685 mmHg 65%
    06:00 +17°C° 0 mm 3 mps 686 mmHg 62%
    07:00 +18°C° 0 mm 3 mps 686 mmHg 59%
    08:00 +20°C° 0 mm 4 mps 686 mmHg 52%
    09:00 +22°C° 0 mm 5 mps 687 mmHg 46%
    10:00 +24°C° 0 mm 6 mps 687 mmHg 39%
    11:00 +24°C° 0 mm 6 mps 687 mmHg 38%
    12:00 +24°C° 0 mm 7 mps 686 mmHg 38%
    13:00 +24°C° 0 mm 7 mps 686 mmHg 37%
    14:00 +26°C° 0 mm 6 mps 686 mmHg 36%
    15:00 +26°C° 0 mm 6 mps 685 mmHg 35%
    16:00 +26°C° 0 mm 6 mps 685 mmHg 34%
    17:00 +25°C° 0.4 mm 5 mps 685 mmHg 40%
    18:00 +22°C° 0.4 mm 4 mps 685 mmHg 47%
    19:00 +21°C° 0.4 mm 3 mps 684 mmHg 53%
    20:00 +20°C° 0.1 mm 3 mps 684 mmHg 57%
    21:00 +20°C° 0.1 mm 2 mps 685 mmHg 61%
    22:00 +19°C° 0.1 mm 2 mps 685 mmHg 65%
    23:00 +19°C° 0.4 mm 2 mps 684 mmHg 66%

    25 May, Saturday

    Time Temperature Precipitation Wind Pressure Humidity
    00:00 +19°C° 0.4 mm 2 mps 684 mmHg 68%
    01:00 +18°C° 0.4 mm 2 mps 684 mmHg 70%
    02:00 +18°C° 0.3 mm 2 mps 683 mmHg 73%
    03:00 +18°C° 0.3 mm 1 mps 683 mmHg 76%
    04:00 +18°C° 0.3 mm 1 mps 682 mmHg 78%
    05:00 +18°C° 1.3 mm 1 mps 682 mmHg 79%
    06:00 +16°C° 1.3 mm 1 mps 683 mmHg 80%
    07:00 +16°C° 1.3 mm 1 mps 683 mmHg 80%
    08:00 +17°C° 0.8 mm 2 mps 683 mmHg 75%
    09:00 +18°C° 0.8 mm 3 mps 683 mmHg 69%
    10:00 +19°C° 0.8 mm 3 mps 684 mmHg 64%
    11:00 +19°C° 1.7 mm 3 mps 683 mmHg 63%
    12:00 +19°C° 1.7 mm 3 mps 683 mmHg 62%
    13:00 +19°C° 1.7 mm 3 mps 682 mmHg 61%
    14:00 +20°C° 0.9 mm 4 mps 682 mmHg 59%
    15:00 +20°C° 0.9 mm 4 mps 682 mmHg 57%
    16:00 +20°C° 0.9 mm 5 mps 682 mmHg 55%
    17:00 +19°C° 0.2 mm 6 mps 682 mmHg 60%
    18:00 +17°C° 0.2 mm 7 mps 682 mmHg 66%
    19:00 +16°C° 0.2 mm 8 mps 682 mmHg 72%
    20:00 +15°C° 0.2 mm 7 mps 682 mmHg 75%
    21:00 +14°C° 0.2 mm 6 mps 682 mmHg 79%
    22:00 +13°C° 0.2 mm 6 mps 683 mmHg 83%
    23:00 +13°C° 1.1 mm 5 mps 683 mmHg 84%

    26 May, Sunday

    Time Temperature Precipitation Wind Pressure Humidity
    00:00 +12°C° 1.1 mm 5 mps 682 mmHg 85%
    01:00 +12°C° 1.1 mm 5 mps 682 mmHg 87%
    02:00 +10°C° 0.9 mm 6 mps 682 mmHg 85%
    03:00 +10°C° 0.9 mm 7 mps 682 mmHg 83%
    04:00 +10°C° 0.9 mm 8 mps 682 mmHg 81%
    05:00 +10°C° 0 mm 8 mps 682 mmHg 81%
    06:00 +10°C° 0 mm 8 mps 682 mmHg 80%
    07:00 +10°C° 0 mm 8 mps 682 mmHg 79%
    08:00 +11°C° 0 mm 9 mps 682 mmHg 76%
    09:00 +12°C° 0 mm 9 mps 683 mmHg 72%
    10:00 +13°C° 0 mm 10 mps 683 mmHg 68%
    11:00 +13°C° 0.1 mm 10 mps 683 mmHg 68%
    12:00 +13°C° 0.1 mm 10 mps 683 mmHg 68%
    13:00 +13°C° 0.1 mm 10 mps 683 mmHg 68%
    14:00 +14°C° 0 mm 10 mps 683 mmHg 66%
    15:00 +14°C° 0 mm 11 mps 683 mmHg 64%
    16:00 +14°C° 0 mm 11 mps 683 mmHg 62%
    17:00 +14°C° 0 mm 11 mps 683 mmHg 65%
    18:00 +13°C° 0 mm 10 mps 683 mmHg 68%
    19:00 +12°C° 0 mm 10 mps 683 mmHg 71%
    20:00 +12°C° 0 mm 9 mps 684 mmHg 75%
    21:00 +11°C° 0 mm 9 mps 684 mmHg 78%
    22:00 +11°C° 0 mm 8 mps 684 mmHg 81%
    23:00 +11°C° 0 mm 7 mps 684 mmHg 82%
    Show more